TimeEST,TemperatureF,Dew PointF,Humidity,Sea Level PressureIn,VisibilityMPH,Wind Direction,Wind SpeedMPH,Gust SpeedMPH,PrecipitationIn,Events,Conditions,WindDirDegrees,DateUTC
12:52 AM,32.0,18.0,56,30.25,10.0,Variable,5.8,-,N/A,,Overcast,0,2013-01-15 05:52:00
1:52 AM,32.0,18.0,56,30.25,10.0,Variable,3.5,-,N/A,,Mostly Cloudy,0,2013-01-15 06:52:00
2:52 AM,30.9,18.0,59,30.24,10.0,Calm,Calm,-,N/A,,Mostly Cloudy,0,2013-01-15 07:52:00
3:52 AM,30.9,18.0,59,30.22,10.0,Calm,Calm,-,N/A,,Overcast,0,2013-01-15 08:52:00
6:52 AM,30.0,19.0,64,30.25,10.0,Variable,5.8,-,N/A,,Overcast,0,2013-01-15 11:52:00
7:52 AM,30.0,18.0,61,30.29,10.0,Variable,3.5,-,N/A,,Overcast,0,2013-01-15 12:52:00
8:52 AM,30.0,18.0,61,30.30,10.0,Variable,3.5,-,N/A,,Overcast,0,2013-01-15 13:52:00
9:52 AM,30.0,17.1,59,30.31,10.0,Variable,5.8,-,N/A,,Overcast,0,2013-01-15 14:52:00
10:52 AM,30.9,17.1,57,30.30,10.0,NW,8.1,-,N/A,,Overcast,310,2013-01-15 15:52:00
11:52 AM,30.9,17.1,57,30.26,10.0,Variable,4.6,-,N/A,,Overcast,0,2013-01-15 16:52:00
12:52 PM,30.9,16.0,54,30.25,10.0,NW,6.9,-,N/A,,Overcast,320,2013-01-15 17:52:00
1:52 PM,30.9,17.1,57,30.26,10.0,Variable,4.6,-,N/A,,Overcast,0,2013-01-15 18:52:00
2:52 PM,30.9,16.0,54,30.27,10.0,Variable,5.8,-,N/A,,Overcast,0,2013-01-15 19:52:00
3:52 PM,30.0,14.0,51,30.26,10.0,NW,4.6,-,N/A,,Overcast,310,2013-01-15 20:52:00
4:52 PM,28.9,16.0,58,30.28,10.0,WNW,4.6,-,N/A,,Overcast,300,2013-01-15 21:52:00
5:52 PM,28.0,16.0,61,30.27,10.0,North,6.9,-,N/A,,Mostly Cloudy,350,2013-01-15 22:52:00
6:52 PM,26.1,16.0,66,30.29,10.0,Calm,Calm,-,N/A,,Partly Cloudy,0,2013-01-15 23:52:00
7:52 PM,21.0,15.1,78,30.28,10.0,Calm,Calm,-,N/A,,Clear,0,2013-01-16 00:52:00
8:52 PM,21.0,16.0,81,30.27,10.0,Calm,Calm,-,N/A,,Clear,0,2013-01-16 01:52:00
9:52 PM,19.9,16.0,85,30.25,9.0,Calm,Calm,-,N/A,,Clear,0,2013-01-16 02:52:00
10:52 PM,21.9,17.1,82,30.25,10.0,Calm,Calm,-,N/A,,Partly Cloudy,0,2013-01-16 03:52:00
11:52 PM,21.0,17.1,85,30.25,10.0,Calm,Calm,-,N/A,,Mostly Cloudy,0,2013-01-16 04:52:00